Air Resources Laboratory banner image
Air Resources Laboratory web site National Oceanic and Atmospheric Administration (NOAA)

ks roundup


Office: GLD

ASUS43 KGLD 180408
RWRGLD

GOODLAND FORECAST AREA HOURLY WEATHER ROUNDUP
NATIONAL WEATHER SERVICE GOODLAND KS
1000 PM MDT FRI AUG 17 2018

...OFFICIAL OBSERVATIONS...

CITY           SKY/WX    TMP DP  RH WIND       PRES   REMARKS
GOODLAND KS    CLOUDY    74  60  61 S12       30.21R
HILL CITY KS   PTCLDY    71  65  81 E3        30.16R
IMPERIAL NEB   CLOUDY    72  62  71 SE8       30.18R
MCCOOK NEB     CLOUDY    72  64  76 SE5       30.16R
AKRON CO       PTCLDY    64  58  80 S17G24    30.26R
BURLINGTON CO  TSTM      65  63  93 N10       30.30R
LIMON CO       MOCLDY    59  59 100 SE15G22   30.35R
$$

...UNOFFICIAL OBSERVATIONS...

CITY           SKY/WX    TMP DP  RH WIND       PRES   REMARKS
COLBY KS       CLOUDY    70  59  68 SE8       30.21R
NORTON KS      CLEAR     70  64  83 SE3       30.16
SHARON SPRINGS   N/A     70  57  63 SE8         N/A
KIT CARSON CO    N/A     68  63  83 MISG        N/A
YUMA CO        FAIR      64  39  39 S7        30.22
$$




Office: TOP ASUS43 KTOP 180408 RWRKS WEATHER ROUNDUP FOR KANSAS NATIONAL WEATHER SERVICE GOODLAND KS 1100 PM CDT FRI AUG 17 2018 NOTE: "FAIR" INDICATES FEW OR NO CLOUDS BELOW 12,000 FEET WITH NO SIGNIFICANT WEATHER AND/OR OBSTRUCTIONS TO VISIBILITY. KSZ001>006-013>018-027>032-041>047-180500- NORTHWEST KANSAS CITY SKY/WX TMP DP RH WIND PRES REMARKS GOODLAND CLOUDY 74 60 61 S12 30.21R HAYS CLEAR 71 65 81 E5 30.15S HILL CITY PTCLDY 71 65 81 E3 30.16R RUSSELL CLEAR 71 67 87 SE8 30.13S $$ KSZ061>065-074>080-084>089-180500- SOUTHWEST KANSAS CITY SKY/WX TMP DP RH WIND PRES REMARKS DODGE CITY MOCLDY 70 64 81 E6 30.16S ELKHART PTCLDY 74 67 78 SE9 30.21R GARDEN CITY CLOUDY 72 62 71 SE6 30.18R GREAT BEND CLEAR 72 65 78 SE5 30.14F LIBERAL PTCLDY 73 65 75 SE7 30.19R PRATT CLEAR 73 63 70 NE6 30.13F $$ KSZ066>073-081>083-090>101-180500- SOUTHEAST KANSAS CITY SKY/WX TMP DP RH WIND PRES REMARKS CHANUTE CLEAR 73 70 90 N3 30.06S COFFEYVILLE CLEAR 74 72 93 N5 30.02S HUTCHINSON CLEAR 70 68 93 CALM 30.11S MEDICINE LODGE N/A 71 66 84 NE3 30.11S NEWTON CLEAR 73 68 84 N3 30.12S PARSONS CLEAR 70 70 100 CALM 30.07R WICHITA INTL CLEAR 78 67 68 NE6 30.09S WICHITA JABRA CLEAR 71 67 87 N3 30.10S WICHITA MCCONL CLEAR 75 65 70 NE3 30.09S WINFIELD CLEAR 73 67 81 NE5 30.09R $$ KSZ007>012-019>026-033>040-048>060-102>105-180500- NORTHEAST KANSAS CITY SKY/WX TMP DP RH WIND PRES REMARKS CONCORDIA CLEAR 72 67 84 CALM 30.11F EMPORIA CLEAR 72 66 81 W3 30.09R LAWRENCE MOCLDY 72 70 93 NW6 30.07R MANHATTAN CLEAR 72 68 87 CALM 30.09R MARYSVILLE CLEAR 68 68 100 CALM 30.12R OLATHE IND CLEAR 75 67 76 CALM 30.08R OLATHE EXE CLEAR 75 67 76 CALM 30.07R SALINA MOCLDY 75 69 81 W6 30.11S TOPEKA BILLARD CLEAR 74 70 87 CALM 30.08R TOPEKA FORBES CLEAR 74 68 81 CALM 30.09R $$
Office: EAX ASUS43 KEAX 180410 RWREAX WEATHER ROUNDUP FOR EASTERN KANSAS AND NORTHWEST MISSOURI NATIONAL WEATHER SERVICE KANSAS CITY/PLEASANT HILL MO 1100 PM CDT FRI AUG 17 2018 KSZ040-057-103>105-MOZ028-029-037-043-180500- ...KANSAS CITY METROPOLITAN AREA... CITY SKY/WX TMP DP RH WIND PRES REMARKS K.C. INTL MOCLDY 75 69 81 NW5 30.06R K.C. DOWNTOWN CLEAR 78 69 73 CALM 30.05R LEES SUMMIT CLEAR 75 67 76 CALM 30.07R OLATHE - IXD CLEAR 75 67 76 CALM 30.08R OLATHE - OJC CLEAR 75 67 76 CALM 30.07R LAWRENCE MOCLDY 72 70 93 NW6 30.07R $$ MOZ001>008-011>017-020>025-030>033-038>040-044>046-053-054-180500- ...NORTHERN AND CENTRAL MISSOURI... CITY SKY/WX TMP DP RH WIND PRES REMARKS ST. JOSEPH PTCLDY 72 69 90 N3 30.07R MOSBY CLEAR 70 68 94 CALM 30.05S WARRENSBURG CLEAR 70 64 83 W5 30.05R WHITEMAN AFB PTCLDY 72 66 83 CALM 30.00S CLINTON CLEAR 70 66 88 CALM 30.05R SEDALIA CLEAR 74 68 81 NW3 30.05R WARSAW NOT AVBL CHILLICOTHE N/A 72 70 93 CALM 30.05R KIRKSVILLE CLEAR 68 65 90 CALM 30.05R $$ MOZ041-047>049-056>058-063>065-088>090-097-180500- ...EASTERN AND SOUTHERN MISSOURI... CITY SKY/WX TMP DP RH WIND PRES REMARKS ST. LOUIS INTL PTCLDY 77 70 79 N6 30.00R SPIRIT OF STL MOCLDY 72 69 90 W5 29.99R COLUMBIA CLEAR 75 66 73 NW3 30.03R JEFFERSON CITY CLEAR 73 68 84 N3 30.01R ROLLA CLEAR 72 68 87 CALM 30.04R OSAGE BEACH CLEAR 71 68 90 CALM 30.04S SPRINGFIELD CLOUDY 76 68 76 NW5 30.05R BRANSON CLEAR 73 72 94 CALM 30.06S JOPLIN CLEAR 72 69 90 N3 30.05S WEST PLAINS PTCLDY 73 70 90 W3 30.05R $$ IAZ060-094-KSZ022-034>040-054-083-096-NEZ052-066-093-180500- ...KANSAS...SOUTHEAST NEBRASKA AND IOWA... CITY SKY/WX TMP DP RH WIND PRES REMARKS TOPEKA CLEAR 74 70 87 CALM 30.08R MANHATTAN CLEAR 72 68 87 CALM 30.09R EMPORIA CLEAR 72 66 81 W3 30.09R CHANUTE CLEAR 73 70 90 N3 30.06S WICHITA CLEAR 78 67 68 NE6 30.09S OMAHA PTCLDY 72 68 87 N5 30.10R LINCOLN CLEAR 73 67 81 N5 30.12R FALLS CITY CLEAR 72 68 87 NW5 30.08R LAMONI CLEAR 72 66 81 N6 30.07R DES MOINES PTCLDY 75 66 73 N8 30.05R $$